Location: Red Deer
(52.2681°N, 113.8112°W)
Time: 15:53:46
(UTC-07:00)

Tiangong - Pass Details

Date: 03 December 2022
Orbit: 383 x 386 km, 41.5° (Epoch: 31 January)

Event Time Altitude Azimuth Distance (km) Brightness Sun altitude
Rises 18:06:47 0° 220° (SW) 2,249 2.8 -14.7°
Drops below altitude 10° 18:07:57 - 211° (SSW) 1,892 2.1 -14.8°
Maximum altitude 18:10:56 10° 167° (SSE) 1,403 0.7 -15.3°
Enters shadow 18:12:17 - 144° (SE) 1,516 0.7 -15.5°
